Theta_e
341 349 360 361 363 365 364 363 362 363 363 363 363 363 363 363 362 361 361 361 360 359 357 356 355 355 355 354 354 354 354 354 353 353 353 356 355 353 352 351 352 351 348
342 347 360 361 362 364 364 364 364 364 364 364 364 363 362 362 361 360 359 358 358 356 356 355 355 354 354 355 354 355 354 355 356 356 356 356 357 358 356 354 353 351 353
344 346 351 361 362 363 364 364 364 364 364 364 363 362 361 361 359 357 356 356 356 355 355 354 354 354 353 354 355 356 358 358 358 359 359 353 348 360 357 354 353 354 358
347 345 348 360 361 362 363 364 364 364 364 362 361 360 359 358 356 355 353 353 353 353 352 351 352 353 354 355 356 357 358 359 360 360 353 351 352 358 359 354 350 352 356
350 348 354 361 361 360 360 362 362 362 361 360 359 358 356 355 354 353 352 351 350 350 351 353 354 355 355 355 357 357 358 358 358 351 338 341 350 358 356 353 353 353 354
350 357 357 361 361 360 359 359 359 359 359 358 357 356 355 354 353 353 351 354 351 353 354 355 357 357 356 356 356 357 357 356 354 331 329 337 333 356 352 348 346 349 354
352 356 353 361 360 359 357 357 358 358 358 358 357 355 354 354 354 353 353 351 353 354 355 356 356 355 355 354 354 354 353 353 339 330 328 330 333 351 351 347 345 348 351
352 352 354 359 360 359 358 358 358 358 358 357 356 356 355 355 355 354 354 353 354 354 351 351 351 351 351 352 351 351 351 350 334 328 328 329 344 349 346 343 343 345 347
347 351 352 352 356 359 360 359 359 358 357 356 357 356 356 356 355 355 356 356 354 351 348 348 348 347 347 348 350 350 350 350 335 329 331 329 348 346 345 344 345 346 347
344 347 346 351 350 351 352 359 358 356 355 355 355 355 356 357 357 357 357 353 345 346 346 347 348 348 348 347 347 346 348 350 337 332 333 332 347 347 347 347 348 348 348
338 342 344 345 346 347 346 351 355 353 354 353 347 351 351 349 351 349 347 346 348 347 346 347 348 347 347 348 348 348 350 338 333 334 333 351 348 348 347 346 347 347 347
334 337 340 342 343 343 344 348 349 349 345 343 340 343 343 346 343 337 342 347 346 347 347 348 350 350 350 340 337 344 338 337 335 335 334 352 348 341 342 346 346 346 346
333 337 339 350 348 341 348 348 347 345 342 346 346 348 353 346 349 344 344 342 343 347 339 341 339 338 336 336 335 334 334 333 333 332 335 343 342 343 342 341 341 343 344
331 334 339 344 350 356 343 340 345 341 343 343 348 349 353 347 350 346 343 343 342 340 340 339 335 335 335 333 332 330 328 325 324 324 326 337 337 338 340 338 338 337 337
330 333 336 343 351 356 355 349 348 341 343 346 348 348 347 347 346 345 344 342 342 340 337 333 332 332 327 327 324 323 322 321 321 321 321 334 336 336 336 333 336 336 335
335 334 339 344 356 351 359 355 352 353 351 348 347 344 345 345 344 342 340 341 341 336 332 329 326 326 324 323 322 321 321 321 321 321 322 322 332 333 335 336 332 331 332
340 341 345 346 351 356 357 355 356 351 347 349 344 344 342 340 339 339 339 339 334 329 327 325 325 324 322 321 320 320 320 321 321 321 321 321 323 332 333 329 329 329 330
342 343 345 338 348 354 354 353 351 350 351 349 345 340 339 337 336 334 333 332 328 327 325 324 322 320 319 318 317 318 318 318 318 320 321 321 322 321 324 325 326 326 327
350 348 344 351 345 349 357 352 354 352 349 348 340 340 334 334 330 330 329 329 327 325 324 321 319 319 315 315 315 315 315 316 317 318 319 320 318 317 319 323 324 325 325
345 357 357 353 358 353 352 356 352 345 348 345 339 336 335 330 328 328 324 324 322 321 320 320 318 316 313 313 313 313 314 314 315 316 316 315 316 318 317 318 318 318 323
353 355 363 363 358 353 349 347 344 342 345 341 340 332 331 328 323 327 323 322 323 319 318 319 315 312 311 313 312 310 310 313 312 312 312 314 314 316 315 316 316 317 317
351 355 352 351 355 349 345 341 340 340 338 337 334 331 327 325 325 323 322 322 321 317 319 316 315 312 312 313 309 307 302 305 309 308 310 311 312 312 314 315 315 315 315
341 342 342 343 342 345 343 340 338 337 338 335 333 331 328 324 320 322 322 322 321 320 316 316 316 314 309 310 312 307 302 299 302 308 307 310 309 311 311 313 314 315 316
338 341 340 340 339 338 338 343 343 336 329 327 325 324 324 322 323 321 322 321 321 318 318 316 317 316 312 308 309 311 310 306 300 298 305 307 309 308 310 311 313 315 315
334 333 336 334 334 335 335 335 334 330 330 327 326 327 327 326 324 321 321 321 319 317 316 317 316 316 315 311 309 309 308 307 305 301 298 302 306 308 309 310 311 314 315
331 330 329 330 330 331 330 328 328 326 324 320 320 321 318 320 321 323 320 320 320 318 316 316 317 316 315 314 313 311 309 306 304 303 301 302 302 306 308 310 311 314 315
Wind_Speed
14 13 15 15 14 13 12 13 13 13 11 10 9 9 8 8 8 8 8 7 7 7 7 7 7 6 6 6 6 6 6 6 6 7 7 7 7 6 6 4 3 3 5
17 14 13 14 14 13 13 13 13 12 11 10 9 8 8 7 7 7 6 6 6 6 6 6 5 5 5 5 6 6 6 7 8 9 12 12 13 12 11 8 4 2 1
17 14 14 13 13 13 12 12 12 11 10 9 8 8 8 7 6 4 4 4 4 4 4 4 4 5 5 6 7 7 8 9 10 12 15 11 12 17 10 6 4 2 3
16 12 13 13 12 12 12 11 10 10 9 8 8 7 6 5 3 3 2 2 2 3 3 3 4 5 6 7 8 8 9 10 11 14 10 11 12 13 13 6 2 2 4
16 15 13 12 11 11 11 10 9 9 8 7 6 5 4 3 2 1 0 1 2 3 4 4 5 5 6 7 7 8 9 10 13 14 12 10 5 12 11 6 2 2 6
18 17 14 12 10 10 10 9 8 8 7 7 5 4 3 3 2 1 2 3 3 4 5 5 5 6 6 7 8 8 8 10 13 12 12 5 1 15 12 8 5 2 2
19 18 14 12 10 10 9 8 7 7 5 5 4 4 3 3 3 3 3 3 3 4 5 6 6 6 7 7 7 8 8 9 9 10 12 13 1 14 13 10 7 4 2
19 16 13 12 10 10 9 8 6 5 5 4 4 4 4 4 4 4 4 3 3 4 5 5 5 7 7 8 9 10 10 10 10 9 11 12 8 10 10 8 5 4 4
18 17 12 12 10 9 8 7 6 5 5 4 4 4 5 6 6 6 5 3 2 2 3 4 5 6 8 9 12 13 13 13 10 9 12 10 11 12 10 8 8 8 8
15 16 13 11 12 10 9 8 7 6 4 4 4 6 8 7 8 9 7 5 4 4 5 8 8 9 11 14 15 16 15 14 12 14 12 9 14 13 11 10 10 10 10
10 16 15 14 13 11 12 10 8 7 7 6 6 10 7 7 9 9 7 12 11 9 11 11 10 12 15 14 19 18 16 7 11 10 6 7 10 8 7 7 8 9 9
11 14 15 15 14 14 12 12 9 9 8 8 8 7 7 6 3 1 8 13 9 11 13 12 11 16 12 6 7 8 5 8 9 10 8 7 8 1 6 9 10 10 11
12 9 13 7 8 10 14 9 7 7 5 3 5 3 4 4 1 2 2 1 4 5 5 5 6 5 10 9 8 9 11 11 8 8 10 20 20 17 15 14 15 15 15
12 10 12 12 4 6 8 7 6 5 4 4 5 1 2 2 4 4 3 5 4 3 6 5 6 8 8 10 11 11 11 10 8 8 10 19 20 22 22 21 19 18 19
13 11 12 14 7 5 3 3 4 5 3 6 6 4 4 4 4 3 3 4 4 4 5 6 7 6 8 9 10 10 10 11 12 8 7 17 17 20 22 23 23 23 22
13 13 13 15 8 7 1 5 5 3 4 2 5 5 5 3 3 4 4 3 3 5 6 6 6 5 6 7 8 10 11 10 11 11 8 8 18 20 21 22 19 19 20
11 11 11 16 12 8 4 4 1 4 4 3 7 5 2 3 3 4 4 4 5 6 7 6 6 6 5 8 10 9 10 10 9 10 10 10 11 13 18 18 18 19 17
11 11 10 12 15 9 7 6 4 3 1 4 6 6 2 2 5 5 5 4 5 4 5 5 5 7 7 7 9 9 8 10 12 12 10 10 6 7 10 16 18 17 17
8 14 11 6 15 14 7 6 3 6 3 4 4 5 6 6 6 5 4 4 5 4 4 7 7 6 8 8 9 8 10 9 10 10 12 10 9 8 4 12 17 19 19
13 10 11 9 4 12 8 4 4 5 4 5 7 5 7 6 7 5 6 5 5 5 5 6 7 7 7 8 8 9 8 10 8 8 10 10 10 9 10 8 6 9 19
12 8 7 8 6 6 7 5 6 4 2 5 4 8 6 5 6 5 3 4 5 6 6 6 5 7 7 8 6 6 8 9 9 10 11 8 11 10 12 10 7 6 8
14 15 13 12 11 11 5 5 4 3 3 2 5 4 4 3 4 4 4 3 5 4 5 5 4 5 6 7 5 6 4 4 6 11 7 10 10 12 11 12 12 11 9
16 14 13 12 10 10 7 6 3 1 1 1 3 3 1 3 3 2 3 4 4 3 3 4 3 4 4 5 6 3 4 4 9 2 9 6 12 9 12 13 13 12 9
12 12 11 10 10 8 10 2 1 5 4 2 1 5 0 3 3 3 2 3 3 4 4 4 4 3 2 5 4 3 4 4 3 6 3 9 8 11 12 11 10 12 8
11 11 12 13 12 10 10 8 4 6 4 4 2 3 4 4 6 4 4 4 3 3 5 6 6 5 4 3 5 5 4 4 5 5 9 8 9 9 9 11 12 11 9
12 13 11 10 9 8 8 8 8 7 5 4 5 4 5 5 4 6 4 4 3 3 5 4 5 7 5 4 4 4 4 3 4 5 4 10 12 8 9 10 11 9 4
Wind_Direction
110 115 110 111 112 118 121 121 120 122 127 127 123 117 108 97 89 86 83 80 78 75 75 72 63 49 41 35 28 17 5 354 340 321 299 272 245 226 210 204 297 88 94
120 119 122 124 127 131 129 127 128 133 133 129 126 121 112 108 104 97 90 84 76 66 60 55 51 41 23 12 3 352 341 329 315 302 288 278 251 227 220 197 187 347 24
118 128 134 130 132 135 134 133 135 136 132 131 131 131 131 127 120 108 94 76 63 56 46 33 19 7 360 351 344 336 328 317 307 298 295 285 272 211 212 213 202 229 293
127 143 136 136 135 136 139 138 135 133 134 137 138 142 141 141 133 113 84 58 32 15 8 0 356 352 348 341 335 329 322 314 306 302 293 285 297 165 189 183 201 276 283
142 131 126 135 135 137 140 136 133 135 139 145 153 163 160 160 162 165 22 335 329 339 345 352 351 347 338 330 324 317 313 310 309 304 282 273 200 168 159 153 233 4 9
139 122 133 135 138 140 144 143 141 150 159 164 170 180 183 199 211 246 281 293 332 339 340 340 335 335 330 330 325 316 312 311 314 298 307 312 252 159 154 142 146 123 331
121 121 138 138 142 144 152 153 157 160 160 169 190 201 213 226 240 252 273 309 327 331 331 333 339 340 332 325 316 307 302 301 295 297 304 315 349 155 157 164 154 119 276
117 130 139 144 148 152 156 158 160 156 166 175 203 214 224 233 241 252 261 284 322 342 348 346 340 334 321 305 294 283 276 276 291 287 291 296 153 165 162 161 146 175 223
125 121 147 158 157 154 155 155 157 156 168 186 208 222 233 236 238 242 248 267 298 2 351 329 304 292 287 277 266 261 260 262 270 275 275 269 164 172 171 178 188 206 221
139 138 149 153 162 168 167 160 159 163 168 203 221 236 232 230 229 227 220 205 184 207 242 249 254 265 268 262 264 261 258 260 265 262 258 260 166 180 187 192 201 212 225
164 141 154 162 159 180 154 158 159 166 185 198 212 225 219 222 205 201 169 183 201 217 235 244 248 256 259 271 268 268 263 251 255 272 312 136 168 184 206 221 229 239 250
176 154 157 164 162 188 150 149 179 177 190 195 195 191 208 212 144 165 194 209 216 232 248 259 257 256 269 277 328 342 317 301 290 311 309 0 135 175 270 256 257 261 266
170 156 149 129 159 176 132 168 178 173 186 156 110 43 34 350 76 315 26 178 237 249 255 359 319 327 347 331 326 323 311 307 302 308 317 330 320 322 319 313 306 294 285
147 149 148 123 135 46 133 165 154 146 137 156 102 98 17 276 31 21 353 349 313 349 343 357 343 335 330 330 319 310 316 318 316 317 312 316 314 318 320 320 311 302 297
138 138 149 132 148 98 49 104 97 115 138 120 122 88 34 340 38 341 349 301 348 343 4 353 327 322 324 312 316 307 317 315 308 297 292 300 318 323 313 308 303 297 294
141 145 139 135 128 127 116 66 93 50 123 197 97 84 115 333 40 306 311 355 324 19 1 320 313 309 316 308 326 328 313 308 305 300 303 312 307 299 292 291 305 309 303
140 146 136 133 138 136 168 114 164 163 192 140 102 97 63 8 36 347 318 330 30 5 332 317 326 315 335 336 315 314 308 303 315 319 320 301 285 308 338 336 334 325 326
151 141 145 157 145 154 159 155 194 155 219 98 117 126 33 189 92 345 339 359 24 342 314 329 332 344 335 334 323 313 339 329 317 314 313 330 323 338 3 338 324 316 305
169 148 152 161 155 159 161 157 187 93 52 77 78 84 33 5 30 6 331 10 4 320 351 356 349 345 331 331 319 332 325 313 325 318 305 332 353 331 319 314 323 313 307
164 153 154 153 175 148 149 120 121 97 59 59 45 45 34 5 12 8 343 8 350 6 349 351 358 354 330 324 314 310 315 313 305 332 351 332 326 331 321 317 310 296 304
32 46 132 142 123 99 127 149 78 95 89 67 96 48 23 359 3 344 356 345 6 9 331 25 358 335 317 311 316 322 301 295 320 347 336 325 330 331 327 315 319 321 307
70 66 33 53 57 61 55 37 24 67 86 251 74 90 40 351 319 351 344 328 29 337 353 12 326 312 307 348 325 299 325 309 11 315 306 321 348 326 312 312 310 303 298
68 70 71 69 62 71 88 93 92 110 116 301 97 94 12 46 345 263 3 25 346 324 3 306 296 321 319 315 349 312 325 319 323 319 316 322 319 325 313 306 304 295 286
78 72 82 74 57 50 37 100 219 72 68 78 280 104 251 228 268 301 28 1 31 345 339 317 315 322 301 299 305 275 291 284 330 318 279 308 299 316 313 303 301 293 278
94 84 68 70 67 65 58 44 20 33 52 102 6 336 248 215 222 214 58 338 35 336 316 320 328 310 264 266 293 306 275 273 272 265 304 309 306 309 300 312 300 289 278
97 90 75 72 70 65 68 61 55 52 39 32 357 304 23 324 1 70 31 326 15 321 313 317 311 309 314 304 296 270 258 259 262 269 281 308 305 306 310 303 313 316 354